Regional Weather Roundup
Issued by NWS

Home | Current Version | Previous Version | Text Only | Print | Product List | Glossary On
Versions: 1 2 3 4 5 6 7 8 9 10 11 12 13 14 15 16 17 18 19 20 21 22 23 24 25 26 27 28 29 30 31 32 33 34 35 36 37 38 39 40 41 42 43 44 45 46 47 48 49 50
000
ASPQ40 PGUM 041614
RWRPQ
WEATHER ROUNDUP FOR THE MARIANAS AND MICRONESIA
NATIONAL WEATHER SERVICE TIYAN GU
200 AM CHST SUN JUL 05 2015

GUZ001>004-041700-
MARIANA ISLANDS-

CITY           SKY/WX    TMP DP  RH WIND       PRES   REMARKS
GUAM AIRPORT   RAIN      77  77 100 NW9       29.50F FOG
ANDERSEN AFB   HVY RAIN  73  73 100 NW6       29.50F FOG
ROTA AIRPORT   NOT AVBL
TINIAN AP      NOT AVBL
SAIPAN AP      LGT RAIN  81  79  94 E29G39    29.46F

$$

PMZ161-041700-
REPUBLIC OF PALAU-

CITY           SKY/WX    TMP DP  RH WIND       PRES   REMARKS
KOROR AP       MOCLDY    81  75  83 SW14      29.80F
KOROR WSO      CLOUDY    82  73  74 W14       29.79F

$$

PMZ171>174-041700-
FEDERATED STATES OF MICRONESIA-

CITY           SKY/WX    TMP DP  RH WIND       PRES   REMARKS
YAP AIRPORT    CLOUDY    82  75  78 W10       29.74F
CHUUK AP       CLOUDY    81  77  89 SW9       29.72F
POHNPEI AP     CLOUDY    79  77  94 S6        29.75
POHNPEI WSO    CLOUDY    75  75 100 SE3       29.79F
KOSRAE AP      CLOUDY    82  77  83 W9        29.75S HX  91

$$

PMZ181-041700-
REPUBLIC OF THE MARSHALL ISLANDS-

CITY           SKY/WX    TMP DP  RH WIND       PRES   REMARKS
KWAJALEIN AP   DRIZZLE   79  73  83 SW8       29.69F
MAJURO AP      NOT AVBL
MAJURO WSO     CLOUDY    82  77  83 S12       29.74R HX  91

$$



USA.gov is the U.S. government's official web portal to all federal, state and local government web resources and services.